Salem, IL

10:50 PM CST on February 12, 2016 (GMT -0600)
Salem-Leckrone

Weather History for KSLO - July, 2014

Change the Weather History Date:

Tuesday, July 15, 2014

  Actual Average Record
Temperature  
Mean Temperature 66 °F -  
Max Temperature 76 °F 89 °F 104 °F (1980)
Min Temperature 57 °F 68 °F 55 °F (1990)
Cooling Degree Days 1    
Growing Degree Days 16 (Base 50)    
Moisture  
Dew Point 56 °F    
Average Humidity 70    
Maximum Humidity 92    
Minimum Humidity 47    
Precipitation  
Precipitation 0.00 in - - ()
Sea Level Pressure  
Sea Level Pressure 30.00 in    
Wind  
Wind Speed 6 mph (NW)    
Max Wind Speed 13 mph    
Max Gust Speed 21 mph    
Visibility 10 miles    
Events      
Averages and records for this station are not official NWS values.
T = Trace of Precipitation, MM = Missing Value Source: NWS Daily Summary

Daily Weather History Graph

Daily Weather History Graph

Search for Another Location

Airport or City:

Trip Planner

Search our weather history database for the weather conditions in past years. The results will help you decide how hot, cold, wet, or windy it might be!

Date:

Astronomy

Jul. 15, 2014 Rise Set
Actual Time 5:43 AM CDT 8:19 PM CDT
Civil Twilight 5:12 AM CDT 8:50 PM CDT
Nautical Twilight 4:34 AM CDT 9:29 PM CDT
Astronomical Twilight 3:50 AM CDT 10:12 PM CDT
Moon 10:31 PM CDT (7/15) 9:34 AM CDT (7/15)
Length of Visible Light 15h 38m
Length of Day
14h 36m
Waning Gibbous, 85% of the Moon is Illuminated
Jul 15
Waning Gibbous
Jul 18
Last Quarter
Jul 26
New
Aug 3
First Quarter
Aug 10
Full

Hourly Weather History & Observations

Time (CDT) Temp. Dew Point Humidity Pressure Visibility Wind Dir Wind Speed Gust Speed Precip Events Conditions
12:15 AM 67.1 °F 62.1 °F 84% 29.97 in 10.0 mi NNW 3.5 mph - N/A   Scattered Clouds
12:35 AM 65.5 °F 61.7 °F 88% 29.96 in 10.0 mi Calm Calm - N/A   Clear
12:55 AM 65.7 °F 61.2 °F 85% 29.96 in 10.0 mi NW 3.5 mph - N/A   Clear
1:15 AM 65.7 °F 60.4 °F 83% 29.96 in 10.0 mi NW 5.8 mph - N/A   Clear
1:35 AM 65.3 °F 59.9 °F 83% 29.96 in 10.0 mi NNW 5.8 mph - N/A   Clear
1:55 AM 64.8 °F 59.4 °F 83% 29.96 in 10.0 mi NW 6.9 mph - N/A   Clear
2:15 AM 64.4 °F 58.3 °F 80% 29.95 in 10.0 mi NNW 6.9 mph - N/A   Clear
2:35 AM 63.5 °F 57.4 °F 80% 29.95 in 10.0 mi NNW 5.8 mph - N/A   Clear
2:55 AM 62.6 °F 57.2 °F 82% 29.95 in 10.0 mi NNW 5.8 mph - N/A   Clear
3:15 AM 62.1 °F 56.7 °F 82% 29.96 in 10.0 mi NW 4.6 mph - N/A   Clear
3:35 AM 60.8 °F 56.5 °F 86% 29.96 in 10.0 mi NW 4.6 mph - N/A   Clear
3:55 AM 60.1 °F 56.3 °F 87% 29.96 in 10.0 mi NW 4.6 mph - N/A   Clear
4:15 AM 59.9 °F 55.9 °F 87% 29.97 in 10.0 mi Calm Calm - N/A   Clear
4:35 AM 59.4 °F 55.6 °F 87% 29.97 in 10.0 mi NW 3.5 mph - N/A   Clear
4:55 AM 58.6 °F 55.4 °F 89% 29.98 in 10.0 mi NW 3.5 mph - N/A   Clear
5:15 AM 59.0 °F 55.0 °F 87% 29.98 in 10.0 mi Calm Calm - N/A   Clear
5:35 AM 59.0 °F 54.7 °F 86% 29.99 in 10.0 mi Calm Calm - N/A   Clear
5:55 AM 58.1 °F 54.5 °F 88% 30.00 in 10.0 mi Calm Calm - N/A   Clear
6:15 AM 57.2 °F 54.9 °F 92% 30.00 in 10.0 mi Calm Calm - N/A   Clear
6:35 AM 58.3 °F 55.0 °F 89% 30.01 in 10.0 mi West 4.6 mph - N/A   Clear
6:55 AM 59.7 °F 54.9 °F 84% 30.01 in 10.0 mi WNW 4.6 mph - N/A   Clear
7:15 AM 61.0 °F 54.7 °F 80% 30.01 in 10.0 mi NW 6.9 mph - N/A   Clear
7:35 AM 61.9 °F 55.0 °F 78% 30.01 in 10.0 mi NW 8.1 mph - N/A   Clear
7:55 AM 62.8 °F 54.9 °F 75% 30.01 in 10.0 mi NW 10.4 mph - N/A   Clear
8:15 AM 63.9 °F 55.4 °F 74% 30.02 in 10.0 mi NW 10.4 mph - N/A   Clear
8:35 AM 64.6 °F 55.6 °F 73% 30.03 in 10.0 mi NW 9.2 mph - N/A   Clear
8:55 AM 65.3 °F 55.0 °F 69% 30.03 in 10.0 mi NNW 9.2 mph - N/A   Clear
9:15 AM 66.9 °F 55.8 °F 67% 30.03 in 10.0 mi NW 9.2 mph - N/A   Clear
9:35 AM 67.3 °F 54.5 °F 63% 30.02 in 10.0 mi NW 9.2 mph - N/A   Clear
9:55 AM 68.2 °F 55.6 °F 64% 30.02 in 10.0 mi NW 11.5 mph 16.1 mph N/A   Scattered Clouds
10:15 AM 68.2 °F 54.7 °F 62% 30.03 in 10.0 mi NW 12.7 mph 17.3 mph N/A   Scattered Clouds
10:35 AM 68.7 °F 55.2 °F 62% 30.02 in 10.0 mi WNW 12.7 mph 16.1 mph N/A   Scattered Clouds
10:55 AM 69.6 °F 55.4 °F 61% 30.02 in 10.0 mi WNW 10.4 mph - N/A   Scattered Clouds
11:15 AM 70.2 °F 55.6 °F 60% 30.02 in 10.0 mi NW 9.2 mph - N/A   Mostly Cloudy
11:35 AM 70.2 °F 55.0 °F 59% 30.02 in 10.0 mi NW 11.5 mph 16.1 mph N/A   Mostly Cloudy
11:55 AM 70.9 °F 54.3 °F 56% 30.02 in 10.0 mi WNW 10.4 mph 18.4 mph N/A   Scattered Clouds
12:15 PM 70.9 °F 54.5 °F 56% 30.02 in 10.0 mi NW 10.4 mph - N/A   Mostly Cloudy
12:35 PM 71.6 °F 54.9 °F 55% 30.03 in 10.0 mi NW 10.4 mph 20.7 mph N/A   Mostly Cloudy
12:55 PM 72.5 °F 53.4 °F 51% 30.03 in 10.0 mi NNW 11.5 mph 18.4 mph N/A   Mostly Cloudy
1:15 PM 71.4 °F 53.4 °F 53% 30.03 in 10.0 mi NNW 9.2 mph - N/A   Mostly Cloudy
1:35 PM 72.3 °F 54.1 °F 53% 30.02 in 10.0 mi NNW 10.4 mph - N/A   Mostly Cloudy
1:55 PM 71.8 °F 53.6 °F 53% 30.02 in 10.0 mi NNW 9.2 mph - N/A   Mostly Cloudy
2:15 PM 73.8 °F 55.2 °F 52% 30.02 in 10.0 mi WNW 9.2 mph 16.1 mph N/A   Mostly Cloudy
2:35 PM 73.4 °F 54.9 °F 52% 30.02 in 10.0 mi WNW 10.4 mph 16.1 mph N/A   Mostly Cloudy
2:55 PM 72.3 °F 54.3 °F 53% 30.01 in 10.0 mi WNW 9.2 mph - N/A   Mostly Cloudy
3:15 PM 73.2 °F 53.6 °F 50% 30.01 in 10.0 mi North 12.7 mph - N/A   Mostly Cloudy
3:35 PM 73.0 °F 54.0 °F 51% 30.00 in 10.0 mi NNW 9.2 mph - N/A   Mostly Cloudy
3:55 PM 73.2 °F 54.0 °F 51% 30.00 in 10.0 mi North 8.1 mph - N/A   Mostly Cloudy
4:15 PM 75.7 °F 54.3 °F 47% 30.00 in 10.0 mi NW 9.2 mph 16.1 mph N/A   Mostly Cloudy
4:35 PM 75.6 °F 54.3 °F 48% 30.00 in 10.0 mi NW 6.9 mph - N/A   Mostly Cloudy
4:55 PM 73.6 °F 54.7 °F 51% 30.00 in 10.0 mi NW 12.7 mph 17.3 mph N/A   Overcast
5:15 PM 72.9 °F 55.0 °F 53% 30.00 in 10.0 mi NNW 9.2 mph - N/A   Overcast
5:35 PM 73.8 °F 55.0 °F 52% 30.00 in 10.0 mi NNW 11.5 mph - N/A   Overcast
5:55 PM 73.6 °F 55.4 °F 53% 30.00 in 10.0 mi NNW 10.4 mph 16.1 mph N/A   Overcast
6:15 PM 73.2 °F 55.2 °F 53% 29.99 in 10.0 mi NNW 9.2 mph - N/A   Overcast
6:35 PM 71.6 °F 55.2 °F 56% 29.99 in 10.0 mi NNW 8.1 mph - N/A   Mostly Cloudy
6:55 PM 71.1 °F 55.2 °F 57% 30.00 in 10.0 mi NNW 8.1 mph - N/A   Overcast
7:15 PM 70.7 °F 55.8 °F 59% 30.00 in 10.0 mi NNW 5.8 mph - N/A   Overcast
7:35 PM 70.2 °F 55.4 °F 59% 30.00 in 10.0 mi NNW 6.9 mph - N/A   Overcast
7:55 PM 69.6 °F 55.9 °F 62% 30.00 in 10.0 mi NNW 5.8 mph - N/A   Overcast
8:15 PM 68.9 °F 56.5 °F 65% 30.00 in 10.0 mi NW 3.5 mph - N/A   Overcast
8:35 PM 68.0 °F 57.4 °F 69% 30.00 in 10.0 mi Calm Calm - N/A   Overcast
8:55 PM 67.1 °F 57.4 °F 71% 30.01 in 10.0 mi NNW 3.5 mph - N/A   Overcast
9:15 PM 67.1 °F 57.0 °F 70% 30.01 in 10.0 mi NNW 5.8 mph - N/A   Overcast
9:35 PM 65.5 °F 57.2 °F 75% 30.02 in 10.0 mi North 3.5 mph - N/A   Overcast
9:55 PM 65.3 °F 57.0 °F 75% 30.02 in 10.0 mi NW 4.6 mph - N/A   Overcast
10:15 PM 64.0 °F 57.9 °F 80% 30.03 in 10.0 mi North 4.6 mph - N/A   Mostly Cloudy
10:35 PM 63.0 °F 58.1 °F 84% 30.03 in 10.0 mi North 3.5 mph - N/A   Mostly Cloudy
10:55 PM 62.2 °F 58.5 °F 87% 30.03 in 10.0 mi Calm Calm - N/A   Mostly Cloudy
11:15 PM 61.9 °F 57.2 °F 85% 30.03 in 10.0 mi North 4.6 mph - N/A   Clear
11:35 PM 60.3 °F 56.8 °F 88% 30.03 in 10.0 mi North 4.6 mph - N/A   Clear
11:55 PM 59.2 °F 56.5 °F 91% 30.04 in 10.0 mi North 4.6 mph - N/A   Clear